Terug naar catalogus

DELTA 1 DEB

ActiefLEO
NORAD 10876·DEBRIS·🇺🇸 United States

Gelanceerd Jul 29, 1976 vanaf Vandenberg Space Force Base

Loading…

Volgende Passages (komende 24 uur)

TLE

VersSource: Space-Track

Epoch: Sep 14, 2026, 00:46 UTC

1 10876U 76077DE  26257.03216579  .00000008  00000-0  37232-3 0  9992
2 10876 102.6059 285.4188 0101338 107.6198 281.0855 12.48809227282184

Volg DELTA 1 DEB in realtime met AllMySat

Download on the App Store